Weather History for KPPO - March, 2013

Change the Weather History Date:

Wednesday, March 20, 2013

  Actual Average (KVPZ) Record (KVPZ)
Temperature  
Mean Temperature 22 °F 39 °F  
Max Temperature 26 °F 48 °F 84 °F (2012)
Min Temperature 17 °F 30 °F 6 °F (1923)
Degree Days  
Heating Degree Days 44 26  
Month to date heating degree days 586  
Since 1 July heating degree days 5318  
Cooling Degree Days 0 0  
Month to date cooling degree days 0  
Year to date cooling degree days 0  
Moisture  
Dew Point 9 °F    
Average Humidity 59    
Maximum Humidity 87    
Minimum Humidity 45    
Precipitation  
Precipitation 0.00 in 0.07 in 1.17 in (1967)
Month to date precipitation 1.48  
Year to date precipitation 4.65  
Sea Level Pressure  
Sea Level Pressure 30.02 in    
Wind  
Wind Speed 11 mph (WNW)    
Max Wind Speed 18 mph    
Max Gust Speed 29 mph    
Visibility 9 miles    
Events Snow    
T = Trace of Precipitation, MM = Missing Value Source: NWS Daily Summary

Daily Weather History Graph

Daily Weather History Graph

Search for Another Location

Airport or City:

Trip Planner

Search our weather history database for the weather conditions in past years. The results will help you decide how hot, cold, wet, or windy it might be!

Date:

Astronomy

Mar. 20, 2013 Rise Set
Actual Time 6:49 AM CDT 6:59 PM CDT
Civil Twilight 6:22 AM CDT 7:27 PM CDT
Nautical Twilight 5:49 AM CDT 7:59 PM CDT
Astronomical Twilight 5:16 AM CDT 8:32 PM CDT
Moon 12:30 PM CDT (3/20) 2:33 AM CDT (3/20)
Length of Visible Light 13h 04m
Length of Day
12h 09m
First Quarter, 59% of the Moon is Illuminated
Mar 20
First Quarter
Mar 27
Full
Apr 2
Last Quarter
Apr 10
New
Apr 18
First Quarter

Hourly Weather History & Observations

Time (CDT) Temp. Windchill Dew Point Humidity Pressure Visibility Wind Dir Wind Speed Gust Speed Precip Events Conditions
12:35 AM 26.1 °F 13.6 °F 12.9 °F 58% 30.04 in 10.0 mi West 16.1 mph 21.9 mph N/A   Overcast
12:55 AM 25.3 °F 14.7 °F 13.1 °F 60% 30.03 in 10.0 mi West 11.5 mph 20.7 mph N/A   Overcast
1:15 AM 25.7 °F 15.7 °F 13.5 °F 60% 30.03 in 10.0 mi West 10.4 mph 16.1 mph N/A   Overcast
1:35 AM 25.7 °F 18.0 °F 13.3 °F 59% 30.02 in 10.0 mi WNW 6.9 mph - N/A   Overcast
1:55 AM 25.7 °F 15.1 °F 13.3 °F 59% 30.02 in 10.0 mi West 11.5 mph - N/A   Overcast
2:15 AM 26.1 °F 15.0 °F 12.9 °F 58% 30.03 in 10.0 mi West 12.7 mph 18.4 mph N/A   Overcast
2:35 AM 25.7 °F 17.1 °F 12.4 °F 57% 30.02 in 10.0 mi WNW 8.1 mph 17.3 mph N/A   Overcast
2:55 AM 25.5 °F 16.9 °F 12.6 °F 58% 30.01 in 10.0 mi WNW 8.1 mph 16.1 mph N/A   Overcast
3:15 AM 24.8 °F 16.1 °F 12.6 °F 60% 30.01 in 10.0 mi WNW 8.1 mph - N/A   Overcast
3:35 AM 24.1 °F 15.2 °F 11.3 °F 58% 30.00 in 10.0 mi WNW 8.1 mph - N/A   Overcast
3:55 AM 23.7 °F 14.0 °F 11.1 °F 59% 29.99 in 10.0 mi WNW 9.2 mph - N/A   Overcast
4:15 AM 23.0 °F 13.9 °F 10.2 °F 58% 29.99 in 10.0 mi WNW 8.1 mph - N/A   Overcast
4:35 AM 22.5 °F 15.1 °F 10.4 °F 60% 29.99 in 10.0 mi WNW 5.8 mph - N/A   Mostly Cloudy
4:55 AM 22.1 °F 13.7 °F 10.0 °F 60% 29.99 in 10.0 mi WNW 6.9 mph - N/A   Mostly Cloudy
5:15 AM 21.7 °F 13.2 °F 9.5 °F 59% 30.00 in 10.0 mi WNW 6.9 mph - N/A   Mostly Cloudy
5:55 AM 20.7 °F 9.5 °F 9.0 °F 61% 30.01 in 10.0 mi NW 10.4 mph 16.1 mph N/A   Mostly Cloudy
6:15 AM 20.1 °F 9.5 °F 8.8 °F 62% 30.01 in 10.0 mi NW 9.2 mph - N/A   Mostly Cloudy
6:35 AM 19.9 °F 8.6 °F 8.6 °F 61% 30.02 in 10.0 mi NW 10.4 mph - N/A   Mostly Cloudy
6:55 AM 19.4 °F 9.5 °F 8.6 °F 63% 30.03 in 10.0 mi WNW 8.1 mph - N/A   Scattered Clouds
7:15 AM 19.4 °F 7.9 °F 8.6 °F 63% 30.03 in 10.0 mi WNW 10.4 mph 17.3 mph N/A   Scattered Clouds
7:35 AM 19.4 °F 8.6 °F 8.6 °F 63% 30.03 in 10.0 mi NW 9.2 mph - N/A   Scattered Clouds
7:55 AM 19.4 °F 9.5 °F 8.6 °F 63% 30.03 in 10.0 mi NW 8.1 mph - N/A   Clear
8:15 AM 19.9 °F 7.3 °F 8.1 °F 60% 30.04 in 10.0 mi NW 12.7 mph 24.2 mph N/A   Clear
8:35 AM 20.3 °F 7.2 °F 8.1 °F 59% 30.04 in 10.0 mi WNW 13.8 mph 21.9 mph N/A   Scattered Clouds
8:55 AM 20.5 °F 5.9 °F 8.4 °F 60% 30.04 in 10.0 mi NW 17.3 mph 24.2 mph N/A   Scattered Clouds
9:15 AM 19.9 °F 7.9 °F 7.9 °F 60% 30.04 in 10.0 mi NW 11.5 mph 21.9 mph N/A   Clear
9:35 AM 20.5 °F 8.0 °F 8.2 °F 59% 30.04 in 10.0 mi NW 12.7 mph 20.7 mph N/A   Scattered Clouds
9:55 AM 20.5 °F 8.6 °F 7.9 °F 58% 30.04 in 10.0 mi WNW 11.5 mph 21.9 mph N/A   Scattered Clouds
10:15 AM 21.2 °F 9.5 °F 7.3 °F 55% 30.04 in 10.0 mi WNW 11.5 mph 18.4 mph N/A   Scattered Clouds
10:35 AM 21.2 °F 6.8 °F 6.6 °F 53% 30.04 in 10.0 mi West 17.3 mph 26.5 mph N/A   Scattered Clouds
10:55 AM 21.4 °F 10.4 °F 6.8 °F 53% 30.04 in 10.0 mi WNW 10.4 mph 19.6 mph N/A   Scattered Clouds
11:15 AM 21.9 °F 9.8 °F 6.4 °F 51% 30.04 in 10.0 mi NW 12.7 mph 19.6 mph N/A   Scattered Clouds
11:35 AM 21.2 °F 7.8 °F 6.1 °F 52% 30.05 in 10.0 mi NW 15.0 mph 24.2 mph N/A   Scattered Clouds
11:55 AM 21.7 °F 10.8 °F 6.1 °F 51% 30.05 in 10.0 mi WNW 10.4 mph 23.0 mph N/A   Scattered Clouds
12:15 PM 21.9 °F 8.2 °F 5.5 °F 49% 30.04 in 10.0 mi West 16.1 mph 21.9 mph N/A   Clear
12:55 PM 23.2 °F 9.0 °F 7.0 °F 50% 30.04 in 10.0 mi NW 18.4 mph 24.2 mph N/A   Scattered Clouds
1:15 PM 21.7 °F 10.2 °F 5.0 °F 49% 30.04 in 10.0 mi WNW 11.5 mph 21.9 mph N/A   Scattered Clouds
1:35 PM 23.9 °F 13.5 °F 6.1 °F 47% 30.03 in 10.0 mi WNW 10.4 mph 21.9 mph N/A   Clear
1:55 PM 23.7 °F 10.5 °F 5.5 °F 46% 30.02 in 10.0 mi NW 16.1 mph 25.3 mph N/A   Scattered Clouds
2:15 PM 24.4 °F 13.0 °F 5.5 °F 45% 30.01 in 10.0 mi WNW 12.7 mph 24.2 mph N/A   Scattered Clouds
2:35 PM 24.6 °F 14.4 °F 6.3 °F 46% 30.00 in 10.0 mi NW 10.4 mph 18.4 mph N/A   Scattered Clouds
2:55 PM 23.5 °F 10.3 °F 5.0 °F 45% 30.00 in 10.0 mi NW 16.1 mph 21.9 mph N/A   Scattered Clouds
3:15 PM 24.6 °F 12.7 °F 6.3 °F 46% 29.99 in 10.0 mi WNW 13.8 mph 18.4 mph N/A   Scattered Clouds
3:35 PM 23.0 °F 11.1 °F 6.4 °F 49% 29.99 in 10.0 mi NW 12.7 mph 17.3 mph N/A   Scattered Clouds
3:55 PM 24.3 °F 13.3 °F 6.3 °F 46% 30.00 in 10.0 mi WNW 11.5 mph 28.8 mph N/A   Mostly Cloudy
4:15 PM 24.1 °F 12.0 °F 5.7 °F 46% 29.99 in 10.0 mi West 13.8 mph 21.9 mph N/A   Scattered Clouds
4:35 PM 23.9 °F 13.5 °F 7.2 °F 49% 29.99 in 10.0 mi West 10.4 mph 18.4 mph N/A   Scattered Clouds
4:55 PM 23.2 °F 10.3 °F 7.7 °F 52% 29.99 in 10.0 mi NW 15.0 mph 21.9 mph N/A   Mostly Cloudy
5:15 PM 23.2 °F 12.6 °F 6.1 °F 48% 30.00 in 10.0 mi WNW 10.4 mph 21.9 mph N/A   Mostly Cloudy
5:35 PM 22.5 °F 11.7 °F 6.4 °F 50% 30.00 in 10.0 mi NW 10.4 mph 17.3 mph N/A   Mostly Cloudy
5:55 PM 22.8 °F 10.4 °F 7.5 °F 52% 30.01 in 10.0 mi NW 13.8 mph 20.7 mph N/A   Overcast
6:15 PM 21.9 °F 11.0 °F 7.3 °F 54% 30.01 in 10.0 mi NW 10.4 mph 17.3 mph N/A   Overcast
6:35 PM 21.7 °F 12.3 °F 7.7 °F 55% 30.01 in 10.0 mi WNW 8.1 mph 16.1 mph N/A   Overcast
6:55 PM 21.7 °F 12.3 °F 7.7 °F 55% 30.01 in 10.0 mi WNW 8.1 mph 17.3 mph N/A   Overcast
7:15 PM 21.6 °F 8.2 °F 9.0 °F 58% 30.01 in 10.0 mi West 15.0 mph - N/A   Overcast
7:35 PM 21.2 °F 11.7 °F 9.5 °F 61% 30.01 in 10.0 mi WNW 8.1 mph - N/A   Overcast
7:55 PM 20.3 °F 11.5 °F 11.8 °F 70% 30.01 in 4.0 mi NW 6.9 mph 16.1 mph N/A Snow Light Snow
8:15 PM 19.4 °F 11.5 °F 14.7 °F 82% 30.02 in 1.2 mi NW 5.8 mph - N/A Snow Snow
8:35 PM 19.0 °F 9.0 °F 15.6 °F 87% 30.02 in 1.2 mi NW 8.1 mph - N/A Snow Light Snow
8:55 PM 18.9 °F 10.8 °F 14.9 °F 85% 30.02 in 5.0 mi NW 5.8 mph - N/A Snow Light Snow
9:15 PM 19.2 °F 7.0 °F 13.8 °F 80% 30.01 in 5.0 mi NW 11.5 mph - N/A Snow Light Snow
9:35 PM 19.4 °F 7.9 °F 12.4 °F 74% 30.01 in 5.0 mi NW 10.4 mph 17.3 mph N/A Snow Light Snow
9:55 PM 19.4 °F 10.4 °F 9.9 °F 66% 30.01 in 10.0 mi WNW 6.9 mph - N/A   Overcast
10:15 PM 19.4 °F 14.3 °F 7.7 °F 60% 30.00 in 10.0 mi WNW 3.5 mph - N/A   Overcast
10:35 PM 19.2 °F 7.7 °F 10.9 °F 70% 30.01 in 7.0 mi NNW 10.4 mph 17.3 mph N/A Snow Light Snow
10:55 PM 18.1 °F 8.9 °F 14.5 °F 86% 30.01 in 0.8 mi WNW 6.9 mph - N/A Snow Snow
11:15 PM 18.0 °F 8.7 °F 14.7 °F 87% 30.01 in 1.0 mi NW 6.9 mph - N/A Snow Light Snow
11:35 PM 17.8 °F 9.6 °F 12.9 °F 81% 30.00 in 4.0 mi WNW 5.8 mph - N/A Snow Light Snow
11:55 PM 18.5 °F 6.8 °F 8.2 °F 64% 29.99 in 10.0 mi NW 10.4 mph 16.1 mph N/A   Overcast